TimeCST,TemperatureF,Dew PointF,Humidity,Sea Level PressureIn,VisibilityMPH,Wind Direction,Wind SpeedMPH,Gust SpeedMPH,PrecipitationIn,Events,Conditions,WindDirDegrees,DateUTC
12:15 AM,31.5,27.3,85,30.37,10.0,East,4.6,-,N/A,,Clear,80,2013-03-08 06:15:00
12:35 AM,31.5,27.3,85,30.38,10.0,Calm,Calm,-,N/A,,Clear,0,2013-03-08 06:35:00
12:55 AM,31.5,27.1,84,30.39,10.0,East,3.5,-,N/A,,Clear,90,2013-03-08 06:55:00
1:15 AM,31.6,27.3,84,30.40,10.0,East,3.5,-,N/A,,Clear,90,2013-03-08 07:15:00
1:35 AM,31.6,27.3,84,30.39,10.0,East,4.6,-,N/A,,Clear,90,2013-03-08 07:35:00
1:55 AM,31.5,27.5,85,30.38,10.0,East,3.5,-,N/A,,Clear,90,2013-03-08 07:55:00
2:15 AM,31.6,27.3,84,30.38,10.0,East,3.5,-,N/A,,Clear,80,2013-03-08 08:15:00
2:35 AM,31.8,27.3,83,30.39,10.0,East,3.5,-,N/A,,Clear,80,2013-03-08 08:35:00
2:55 AM,32.0,27.3,83,30.39,10.0,Calm,Calm,-,N/A,,Clear,0,2013-03-08 08:55:00
3:15 AM,31.1,27.5,87,30.39,10.0,Calm,Calm,-,N/A,,Clear,0,2013-03-08 09:15:00
3:35 AM,31.1,27.7,87,30.40,7.0,Calm,Calm,-,N/A,,Clear,0,2013-03-08 09:35:00
3:55 AM,30.6,27.5,88,30.40,7.0,ENE,3.5,-,N/A,,Clear,70,2013-03-08 09:55:00
4:15 AM,30.4,27.5,89,30.40,10.0,ENE,3.5,-,N/A,,Clear,70,2013-03-08 10:15:00
4:35 AM,30.2,26.8,87,30.40,10.0,East,3.5,-,N/A,,Clear,90,2013-03-08 10:35:00
4:55 AM,30.2,27.0,88,30.41,10.0,East,4.6,-,N/A,,Clear,90,2013-03-08 10:55:00
5:15 AM,30.2,27.1,88,30.41,7.0,East,3.5,-,N/A,,Clear,100,2013-03-08 11:15:00
5:35 AM,30.6,27.0,86,30.42,7.0,Calm,Calm,-,N/A,,Clear,0,2013-03-08 11:35:00
5:55 AM,30.6,27.0,86,30.43,7.0,Calm,Calm,-,N/A,,Clear,0,2013-03-08 11:55:00
6:15 AM,30.2,27.0,88,30.43,7.0,Calm,Calm,-,N/A,,Clear,0,2013-03-08 12:15:00
6:35 AM,30.2,27.1,88,30.43,5.0,Calm,Calm,-,N/A,,Clear,0,2013-03-08 12:35:00
6:55 AM,31.1,27.5,87,30.42,7.0,East,4.6,-,N/A,,Clear,80,2013-03-08 12:55:00
7:15 AM,32.0,27.7,84,30.42,7.0,East,5.8,-,N/A,,Clear,90,2013-03-08 13:15:00
7:35 AM,33.3,28.2,82,30.43,10.0,East,4.6,-,N/A,,Clear,90,2013-03-08 13:35:00
7:55 AM,34.9,28.6,78,30.43,10.0,East,5.8,-,N/A,,Clear,100,2013-03-08 13:55:00
8:15 AM,35.8,28.8,76,30.43,10.0,ESE,9.2,-,N/A,,Clear,120,2013-03-08 14:15:00
8:35 AM,36.5,28.9,74,30.43,10.0,ESE,8.1,-,N/A,,Clear,110,2013-03-08 14:35:00
8:55 AM,37.6,29.1,72,30.45,10.0,ESE,8.1,-,N/A,,Clear,110,2013-03-08 14:55:00
9:15 AM,38.5,28.8,68,30.46,10.0,ESE,11.5,17.3,N/A,,Clear,110,2013-03-08 15:15:00
9:35 AM,39.0,29.3,68,30.45,10.0,ESE,10.4,-,N/A,,Clear,120,2013-03-08 15:35:00
9:55 AM,39.9,30.0,68,30.45,10.0,East,8.1,16.1,N/A,,Clear,100,2013-03-08 15:55:00
10:15 AM,40.8,30.6,67,30.45,10.0,ESE,9.2,-,N/A,,Clear,110,2013-03-08 16:15:00
10:35 AM,41.2,30.2,65,30.43,10.0,ESE,11.5,-,N/A,,Clear,120,2013-03-08 16:35:00
10:55 AM,42.4,31.1,64,30.43,10.0,ESE,10.4,-,N/A,,Clear,120,2013-03-08 16:55:00
11:15 AM,43.3,31.6,63,30.44,10.0,ESE,8.1,-,N/A,,Clear,110,2013-03-08 17:15:00
11:35 AM,44.1,31.6,62,30.42,10.0,ESE,9.2,-,N/A,,Clear,110,2013-03-08 17:35:00
11:55 AM,44.8,32.2,61,30.39,10.0,ESE,10.4,-,N/A,,Clear,110,2013-03-08 17:55:00
12:15 PM,45.9,32.2,59,30.38,10.0,ENE,12.7,-,N/A,,Clear,70,2013-03-08 18:15:00
12:35 PM,46.4,31.6,56,30.37,10.0,East,9.2,16.1,N/A,,Clear,100,2013-03-08 18:35:00
12:55 PM,46.9,32.4,57,30.36,10.0,ESE,11.5,-,N/A,,Clear,120,2013-03-08 18:55:00
1:15 PM,47.5,32.4,56,30.35,10.0,SE,10.4,-,N/A,,Clear,130,2013-03-08 19:15:00
1:35 PM,48.9,33.8,56,30.33,10.0,ESE,11.5,-,N/A,,Unknown,120,2013-03-08 19:35:00
1:55 PM,49.5,33.3,54,30.33,10.0,East,6.9,-,N/A,,Unknown,100,2013-03-08 19:55:00
2:15 PM,49.6,33.1,53,30.33,10.0,ESE,9.2,-,N/A,,Unknown,110,2013-03-08 20:15:00
2:35 PM,49.8,33.6,54,30.32,10.0,East,9.2,-,N/A,,Clear,100,2013-03-08 20:35:00
2:55 PM,50.9,34.2,53,30.33,10.0,ESE,8.1,-,N/A,,Clear,120,2013-03-08 20:55:00
3:15 PM,50.9,32.2,49,30.32,10.0,SE,9.2,-,N/A,,Clear,130,2013-03-08 21:15:00
3:35 PM,51.3,32.7,49,30.32,10.0,SE,10.4,-,N/A,,Clear,130,2013-03-08 21:35:00
3:55 PM,51.1,32.4,49,30.32,10.0,SSE,9.2,-,N/A,,Clear,150,2013-03-08 21:55:00
4:15 PM,50.9,31.6,48,30.31,10.0,SE,9.2,-,N/A,,Clear,130,2013-03-08 22:15:00
4:35 PM,50.5,31.1,47,30.31,10.0,ESE,8.1,-,N/A,,Clear,120,2013-03-08 22:35:00
4:55 PM,50.0,31.6,49,30.30,10.0,East,8.1,-,N/A,,Clear,90,2013-03-08 22:55:00
5:15 PM,50.0,32.2,50,30.31,10.0,ESE,6.9,-,N/A,,Clear,110,2013-03-08 23:15:00
5:35 PM,48.9,32.4,53,30.31,10.0,ESE,4.6,-,N/A,,Clear,110,2013-03-08 23:35:00
5:55 PM,46.6,33.6,61,30.31,10.0,ESE,3.5,-,N/A,,Clear,110,2013-03-08 23:55:00
6:15 PM,46.4,32.5,59,30.31,10.0,East,3.5,-,N/A,,Clear,90,2013-03-09 00:15:00
6:35 PM,46.4,32.0,57,30.30,10.0,East,4.6,-,N/A,,Clear,80,2013-03-09 00:35:00
6:55 PM,45.7,32.0,59,30.30,10.0,East,6.9,-,N/A,,Clear,80,2013-03-09 00:55:00
7:15 PM,45.5,31.8,59,30.30,10.0,East,4.6,-,N/A,,Clear,90,2013-03-09 01:15:00
7:35 PM,45.1,32.0,60,30.30,10.0,East,4.6,-,N/A,,Clear,90,2013-03-09 01:35:00
7:55 PM,44.8,32.0,61,30.29,10.0,East,4.6,-,N/A,,Clear,80,2013-03-09 01:55:00
8:15 PM,44.8,32.0,61,30.29,10.0,East,4.6,-,N/A,,Clear,100,2013-03-09 02:15:00
8:35 PM,45.0,32.0,60,30.28,10.0,East,10.4,-,N/A,,Clear,80,2013-03-09 02:35:00
8:55 PM,45.1,32.0,60,30.28,10.0,East,6.9,-,N/A,,Clear,80,2013-03-09 02:55:00
9:15 PM,45.1,31.8,60,30.29,10.0,ESE,5.8,-,N/A,,Clear,110,2013-03-09 03:15:00
9:35 PM,44.8,32.0,61,30.29,10.0,East,4.6,-,N/A,,Clear,100,2013-03-09 03:35:00
9:55 PM,44.6,32.0,61,30.29,10.0,East,4.6,-,N/A,,Clear,90,2013-03-09 03:55:00
10:15 PM,44.8,31.6,60,30.29,10.0,East,3.5,-,N/A,,Clear,90,2013-03-09 04:15:00
10:35 PM,43.7,32.2,64,30.29,10.0,ESE,3.5,-,N/A,,Clear,110,2013-03-09 04:35:00
10:55 PM,43.7,32.2,64,30.28,10.0,East,5.8,-,N/A,,Clear,80,2013-03-09 04:55:00
11:15 PM,43.7,31.8,63,30.26,10.0,East,5.8,-,N/A,,Scattered Clouds,100,2013-03-09 05:15:00
11:35 PM,43.7,31.6,63,30.26,10.0,ESE,4.6,-,N/A,,Mostly Cloudy,110,2013-03-09 05:35:00
11:55 PM,43.9,31.6,62,30.24,10.0,East,6.9,-,N/A,,Mostly Cloudy,100,2013-03-09 05:55:00